STARLINK-6135, 56539

Orbit data source: Space-Track

STARLINK-6135, 56539 is a payload satellite owned by SpaceX/Seattle (US) in LEO that was launched on Sun, 14 May 2023 UTC via an FALCON 9 launch vehicle from the Air Force Eastern Test Range (AFETR). Payload-class satellites include a variety of spacecraft equipped with specific instruments for various scientific and technological missions. These include communications satellites like Starlink; space stations such as the ISS; scientific satellites like the Hubble; Earth observation satellites from companies like Planet Labs, Umbra, and HawkEye 360; GPS; miniature CubeSats for education and research; and military/defense satellites.

Loading next visibility...
Identifier
56539, 2023-065AN
Orbit
LEO
Country
Flag of USUS
Related business
Manufacturer
SpaceX/Seattle
Mission
Operational Commercial Communications
Bus & Motor
STARLINK, Unknown motor
Mass
305 kg wet, ~290 kg dry
Launch date (UTC)
2023-05-14 (3 years ago)
Launch vehicle
FALCON 9
Launch site
Air Force Eastern Test Range (AFETR)
Object type
Payload
Rocket body
Debris
Shape & HBR
Box + 1 Pan, 10.1 m
Radar Cross Section
11.087 m², Large (>1 m²)

Expand to show TLE details & history
Last TLE update: 3 days ago

TLE from 3 days ago
0 STARLINK-6135
1 56539U 23065AN  26169.97768049  .00000985  00000-0  45332-4 0  9991
2 56539  43.0028  14.9073 0001554 268.3368  91.7306 15.27580019171926
Epoch: 2026-06-18T23:27Z
TLE epoch observation values (Epoch: 2026-06-18T23:27:51.594Z)
Latitude
0.00001°
Longitude
115.72907°
Altitude
482.857 km
Speed
7.626 km/s
True Right ascension
00h 59m 37s
True Declination
0° 00' 00"
Sunlit
Object was in daylight at epoch
Visualization orbit readout
Latitude
Unknown
Longitude
Unknown
Altitude
Unknown
Speed
Unknown
Apparent Right ascension
Unknown
Apparent Declination
Unknown
Sunlit
N/A
Visualization observer readout
Local Sidereal Time
21:24:59
Azimuth
Unknown
Elevation
Unknown
Doppler factor
Unknown
Orbital elements
Apogee altitude
486.06 km
Perigee altitude
483.927 km
Semi-major axis
6,863.131 km
Eccentricity
0.00016
Inclination
43.0028°
RAAN
14.9073°
Arg. of periapsis
268.3368°
True anomaly
91.7484°
Mean anomaly
91.7306°
Eccentric anomaly
91.7395°
Mean motion
3.81733 °/min
Orbital period
94.31 mins
BSTAR
0.000045332
Loading maneuver chart data...
Computing Atmospheric mass density...
Loading historical data...
Loading historical data...
Loading historical data...
Loading historical data...
Loading historical data...
Loading historical data...
Loading historical data...

Documentation

Showing up to 5 results
|